This demonstration page uses our WeatherBlox Daily Observations layout. Learn more.

Left ArrowRight Arrow

30.21309, -93.2044

Hourly Observations for May 8, 2022

Temp ( °F °C ) Dew Point ( °F °C ) Humidity (%) Winds ( mph kmh ) Pressure ( in mb ) Visibility ( mi km ) Precip ( " mm )
12:15 am 00:15 Clear 72 22 70 21 94 94 S 7 11 29.80 1009 10 16 0.00 0.00
12:35 am 00:35 Clear 72 22.4 70 21.2 93 93 S 6 9 29.79 1009 10 16 0.00 0.00
12:55 am 00:55 Clear with Mist and Fog 70 21 68 20 94 94 SSE 5 7 29.79 1009 5 8 0.00 0.00
1:15 am 01:15 Clear with Mist and Fog 71 21.8 70 21 95 95 S 6 9 29.79 1009 7 11 0.00 0.00
1:35 am 01:35 Clear with Mist and Fog 71 21.7 69 20.7 94 94 S 5 7 29.79 1009 7 11 0.00 0.00
1:55 am 01:55 Mostly Cloudy with Mist and Fog 71 21.5 69 20.7 95 95 SE 3 6 29.78 1008 1 2 0.00 0.00
2:15 am 02:15 Mostly Cloudy with Fog 71 21.6 69 20.8 95 95 SSE 3 6 29.78 1008 0 0 0.00 0.00
2:35 am 02:35 Mostly Cloudy with Fog 70 21.3 69 20.6 96 96 SE 5 7 29.77 1008 0 0 0.00 0.00
2:55 am 02:55 Mostly Cloudy with Fog 70 21.3 69 20.6 96 96 SSE 5 7 29.77 1008 0 0 0.00 0.00
3:15 am 03:15 Mostly Cloudy with Fog 69 20.7 68 20 96 96 SSE 6 9 29.76 1008 0 0 0.00 0.00
3:35 am 03:35 Mostly Cloudy with Fog 70 21 69 20.4 96 96 SSE 6 9 29.76 1008 1 1 0.00 0.00
3:55 am 03:55 Mostly Cloudy with Fog 69 20.6 68 19.9 96 96 SSE 5 7 29.76 1008 1 1 0.00 0.00
4:15 am 04:15 Mostly Cloudy with Fog 70 21 69 20.4 96 96 SSE 6 9 29.76 1008 1 1 0.00 0.00
4:35 am 04:35 Clear with Mist and Fog 70 21 69 20.4 96 96 SE 6 9 29.77 1008 4 6 0.00 0.00
4:55 am 04:55 Mostly Cloudy with Mist and Fog 70 21.3 69 20.7 96 96 SSE 5 7 29.77 1008 3 5 0.00 0.00
5:15 am 05:15 Mostly Cloudy with Mist and Fog 72 22 70 21.3 96 96 S 3 6 29.77 1008 4 6 0.00 0.00
5:35 am 05:35 Mostly Cloudy with Mist and Fog 71 21.7 70 21 96 96 ESE 3 6 29.78 1008 3 5 0.00 0.00
6:00 am 06:00 Mostly Cloudy with Mist and Fog 72 22 70 21 94 94 ESE 6 9 29.78 1008 4 6 0.00 0.00
6:46 am 06:46 Partly Cloudy with Mist and Fog 72 22 70 21 94 94 ESE 7 11 29.79 1009 2 3 0.00 0.00
7:49 am 07:49 Partly Cloudy with Mist and Fog 75 24 73 23 94 94 ESE 5 7 29.81 1009 3 5 0.00 0.00
8:51 am 08:51 Partly Cloudy 79 26 75 24 89 89 SSE 8 13 29.83 1010 7 11 0.00 0.00
9:51 am 09:51 Mostly Cloudy 82 28 73 23 74 74 S 8 13 29.84 1010 10 16 0.00 0.00
10:46 am 10:46 Mostly Cloudy 84 29 72 22 66 66 S 8 13 29.84 1010 10 16 0.00 0.00
11:46 am 11:46 Mostly Cloudy 86 30 72 22 62 62 S 8 13 29.84 1010 10 16 0.00 0.00
12:51 pm 12:51 Partly Cloudy 90 32 72 22 55 55 S 10 17 29.81 1009 10 16 0.00 0.00
1:52 pm 13:52 Partly Cloudy 90 32 72 22 55 55 S 10 17 29.80 1009 10 16 0.00 0.00
2:50 pm 14:50 Partly Cloudy 90 32 70 21 52 52 SSW 14 22 29.80 1009 10 16 0.00 0.00
3:45 pm 15:45 Partly Cloudy 90 32 72 22 55 55 SSW 12 19 29.78 1008 10 16 0.00 0.00
4:47 pm 16:47 Partly Cloudy 88 31 72 22 59 59 SSW 15 24 29.77 1008 10 16 0.00 0.00
5:55 pm 17:55 Partly Cloudy 86 30 73 23 66 66 S 14 22 29.77 1008 10 16 0.00 0.00
6:55 pm 18:55 Partly Cloudy 82 28 72 22 70 70 S 14 22 29.77 1008 10 16 0.00 0.00
7:50 pm 19:50 Partly Cloudy 79 26 72 22 79 79 S 9 15 29.77 1008 10 16 0.00 0.00
8:45 pm 20:45 Cloudy 79 26 73 23 84 84 S 9 15 29.79 1009 10 16 0.00 0.00
9:45 pm 21:45 Mostly Cloudy 75 24 72 22 89 89 S 9 15 29.81 1009 10 16 0.00 0.00
10:15 pm 22:15 Partly Cloudy 74 23.5 71 21.7 90 90 S 6 9 29.81 1009 10 16 0.00 0.00
10:35 pm 22:35 Mostly Cloudy 74 23.5 72 22 91 91 SSE 6 9 29.81 1009 10 16 0.00 0.00
10:55 pm 22:55 Mostly Cloudy 73 22.8 71 21.4 92 92 SSE 8 13 29.81 1009 10 16 0.00 0.00
11:15 pm 23:15 Mostly Cloudy 73 23 71 21.6 92 92 SSE 7 11 29.81 1009 10 16 0.00 0.00
11:35 pm 23:35 Partly Cloudy 72 22.4 70 21.1 92 92 SSE 7 11 29.81 1009 10 16 0.00 0.00
11:55 pm 23:55 Clear 72 22 70 20.9 94 94 SE 7 11 29.81 1009 10 16 0.00 0.00

Powered by AerisWeather